Location: Hermaringen
(48.5952°N, 10.2585°E)
Time: 18:16:57
(UTC+00:00)

Altair - Pass Details

Date: 21 February 2026
Orbit: 1502 x 1682 km, 47.2° (Epoch: 10 March)

Event Time Altitude Azimuth Distance (km) Brightness Sun altitude
Rises 05:49:59 0° 266° (W) 4,646 - -5.0°
Exits shadow 05:51:16 - 266° (W) 4,229 9.2 -4.8°
Reaches altitude 10° 05:52:59 10° 266° (W) 3,676 8.9 -4.6°
Maximum altitude 06:02:16 84° 181° (S) 1,559 7.6 -3.1°
Drops below altitude 10° 06:11:54 10° 94° (E) 3,800 11.5 -1.5°
Sets 06:15:03 0° 94° (E) 4,809 12.4 -1.0°
